Wind_Speed
7 7 5 4 3 2 4 4 3 5 6 6 6 5 8 8 8 6 5 8 7 6 4 3 3 3 4 4 4 4 3 5 4
8 8 8 7 6 5 5 6 6 6 6 6 7 9 8 7 6 7 7 9 9 9 7 5 4 4 5 5 5 5 5 5 5
11 9 11 10 10 8 8 8 8 8 7 8 9 10 9 10 10 7 8 10 10 10 7 6 5 6 6 6 6 6 5 5 6
13 11 13 12 10 11 12 12 11 10 9 10 12 11 9 11 10 7 8 11 11 10 9 8 8 7 6 7 7 6 7 7 7
15 16 16 15 16 15 15 15 13 13 11 11 12 10 6 9 10 8 7 11 12 11 10 10 8 8 8 7 8 8 8 8 8
17 17 14 16 17 16 16 15 15 14 14 13 12 12 13 16 15 11 12 12 13 14 12 11 10 10 9 8 9 9 9 9 8
22 20 19 18 18 17 16 16 16 16 15 15 14 14 16 16 15 12 10 12 13 14 13 12 11 10 11 9 9 8 8 8 8
24 19 19 18 18 17 16 16 15 16 16 17 16 16 16 18 17 13 10 14 11 15 14 12 11 11 11 10 9 9 9 9 9
24 21 20 21 19 17 16 15 16 17 16 18 18 17 16 19 17 14 13 12 13 16 14 12 11 12 11 11 11 10 10 10 11
28 25 34 27 23 17 14 15 16 17 17 15 18 19 21 19 17 13 15 15 16 16 17 16 11 12 12 12 12 12 12 12 13
28 29 38 30 25 20 11 13 17 18 18 18 17 22 20 20 17 15 17 14 19 24 21 20 16 13 13 13 13 14 14 14 14
30 24 29 29 25 16 8 17 14 21 20 18 20 23 23 21 18 19 20 15 25 23 28 28 24 17 15 16 17 16 17 16 16
46 41 35 31 31 41 33 29 27 25 18 18 20 27 26 24 19 23 23 24 28 27 27 29 28 19 18 21 20 20 18 19 18
34 39 40 42 37 24 27 28 30 31 23 25 25 26 30 27 23 23 27 24 29 32 33 36 35 26 19 22 22 22 22 21 21
31 32 31 33 31 31 34 31 27 30 31 35 31 27 29 25 23 27 27 26 29 33 34 38 38 28 20 22 23 23 23 23 23
28 28 29 28 32 30 30 35 35 33 37 36 37 30 28 29 28 26 31 27 26 23 30 35 33 30 28 24 24 24 24 24 25
26 26 27 27 30 30 34 32 32 35 38 42 35 32 33 25 29 35 36 31 28 35 38 38 39 35 30 27 25 26 26 27 27
25 24 27 27 29 29 37 34 38 37 30 32 30 28 26 20 26 29 32 37 36 39 40 41 35 33 29 27 26 26 28 29 29
25 24 25 27 28 28 31 31 31 35 30 25 26 22 27 24 27 32 38 41 42 46 41 41 36 33 28 27 29 28 28 30 30
26 25 25 26 28 27 28 28 30 33 29 37 32 29 30 25 25 27 35 41 38 42 48 42 38 44 31 24 27 31 32 31 31
Wind_Direction
217 204 192 175 201 292 356 344 278 246 245 240 232 228 219 223 219 222 198 212 203 200 198 214 216 223 235 235 236 237 230 230 234
225 219 202 199 237 266 296 320 307 277 257 249 230 231 237 253 223 216 213 221 215 216 212 222 239 240 236 242 243 249 244 237 231
227 228 225 223 245 264 282 298 304 287 259 247 236 231 244 250 252 233 220 225 221 214 225 233 237 236 236 239 241 234 244 244 233
232 226 216 243 258 262 271 282 291 284 265 247 240 237 244 251 255 244 211 208 210 216 223 232 232 239 243 244 243 248 241 234 231
232 233 234 254 259 262 266 274 278 277 268 251 247 230 215 226 243 250 232 217 224 231 234 234 238 240 240 245 248 248 244 236 227
230 237 247 256 262 264 264 266 264 263 260 256 250 247 232 241 246 240 242 235 236 238 235 230 230 238 243 247 249 247 245 238 231
244 251 261 265 264 263 262 260 258 254 254 256 251 249 246 243 242 238 240 235 235 227 227 230 235 243 248 248 250 250 245 240 233
250 259 266 267 262 257 254 254 254 255 254 252 249 247 244 242 245 239 223 221 238 214 216 231 238 244 250 248 248 246 246 242 236
244 262 277 275 268 259 254 251 250 249 252 253 253 247 243 241 248 239 217 208 194 224 220 231 242 245 244 247 246 244 245 246 245
248 253 261 262 267 255 258 252 252 252 249 248 251 254 249 247 241 247 238 223 215 233 238 234 247 251 252 251 253 254 250 249 251
266 241 254 249 260 244 256 274 269 258 249 245 240 248 250 254 252 243 240 212 238 245 258 248 247 250 258 256 257 256 255 256 253
253 268 244 251 270 242 282 285 290 280 264 262 254 251 254 252 248 242 234 227 231 240 257 259 250 253 267 265 258 256 257 255 259
257 263 267 258 247 267 290 265 274 270 261 269 255 257 253 252 250 247 239 238 237 249 258 263 262 254 271 272 265 264 261 264 264
256 256 259 259 263 248 256 251 248 256 244 266 258 258 259 251 236 244 239 232 238 243 246 257 266 270 266 267 265 265 267 268 270
258 259 257 255 254 258 256 251 252 242 251 255 248 250 253 241 230 244 248 250 248 252 255 258 263 268 268 266 261 263 264 267 271
256 258 259 260 252 245 255 243 248 247 255 258 249 243 250 233 234 247 247 251 249 248 255 263 274 275 276 272 262 262 264 266 267
264 257 257 253 254 238 245 247 252 249 263 253 242 246 248 231 264 241 251 247 240 244 254 260 266 273 274 273 268 267 268 268 269
262 256 252 252 251 251 229 244 244 249 259 243 250 239 254 267 261 277 257 247 256 262 256 266 269 270 273 271 268 265 267 269 270
261 254 252 250 251 252 245 245 234 236 242 248 245 260 254 264 263 266 240 251 252 256 254 266 276 273 269 269 268 268 268 269 270
262 256 252 250 249 249 251 247 246 250 253 244 248 268 251 257 257 267 252 255 239 244 260 266 266 274 278 270 270 271 268 268 271
Height
3155 3156 3157 3158 3159 3160 3161 3161 3161 3162 3162 3162 3163 3163 3163 3163 3164 3165 3166 3166 3167 3168 3169 3170 3170 3171 3172 3172 3172 3172 3173 3173 3174
3153 3155 3156 3157 3157 3158 3159 3160 3160 3160 3161 3161 3162 3161 3162 3162 3162 3164 3165 3165 3166 3167 3169 3170 3170 3171 3171 3172 3172 3173 3173 3174 3173
3152 3153 3155 3155 3156 3157 3158 3159 3159 3160 3160 3160 3160 3160 3160 3161 3161 3163 3164 3164 3165 3166 3168 3169 3169 3170 3171 3171 3172 3172 3172 3173 3173
3150 3151 3153 3152 3153 3155 3156 3157 3158 3158 3159 3159 3159 3160 3160 3159 3159 3162 3162 3162 3164 3165 3167 3168 3168 3169 3169 3170 3171 3171 3171 3171 3171
3147 3149 3150 3151 3151 3152 3154 3155 3155 3156 3157 3158 3158 3159 3159 3159 3158 3160 3162 3162 3163 3164 3165 3167 3167 3168 3168 3169 3170 3170 3170 3170 3171
3145 3146 3147 3148 3148 3149 3150 3151 3152 3153 3154 3156 3157 3158 3158 3156 3158 3159 3159 3160 3162 3163 3164 3165 3166 3166 3167 3168 3168 3169 3169 3170 3170
3141 3143 3144 3144 3144 3145 3147 3148 3149 3150 3152 3153 3155 3156 3157 3156 3155 3157 3158 3158 3159 3160 3162 3163 3164 3165 3165 3166 3166 3167 3168 3168 3169
3140 3142 3141 3141 3141 3141 3143 3144 3146 3147 3149 3150 3152 3153 3153 3153 3155 3155 3157 3157 3157 3158 3160 3161 3163 3163 3164 3164 3165 3165 3166 3167 3168
3135 3136 3138 3138 3138 3138 3139 3141 3142 3143 3145 3147 3149 3149 3149 3150 3152 3154 3155 3156 3156 3156 3157 3158 3160 3161 3162 3162 3163 3163 3164 3165 3165
3126 3128 3132 3134 3135 3135 3136 3137 3139 3140 3141 3144 3145 3146 3145 3148 3149 3151 3153 3154 3154 3152 3154 3156 3158 3159 3160 3160 3161 3162 3162 3162 3163
3119 3123 3126 3127 3130 3130 3133 3136 3136 3137 3139 3140 3142 3140 3142 3145 3147 3148 3149 3152 3151 3150 3151 3152 3155 3156 3157 3158 3158 3159 3159 3160 3159
3117 3115 3112 3119 3124 3124 3131 3133 3134 3135 3136 3138 3138 3136 3139 3142 3144 3145 3146 3147 3149 3149 3148 3148 3150 3153 3155 3154 3155 3155 3155 3155 3156
3114 3113 3115 3114 3116 3121 3121 3128 3131 3133 3133 3135 3136 3134 3135 3138 3140 3142 3143 3144 3146 3145 3146 3145 3146 3150 3152 3152 3152 3152 3152 3153 3152
3104 3107 3108 3111 3113 3113 3117 3119 3123 3127 3126 3128 3130 3131 3130 3133 3136 3137 3138 3140 3141 3141 3142 3141 3140 3143 3148 3148 3149 3149 3149 3149 3149
3096 3098 3100 3103 3105 3106 3109 3112 3114 3119 3120 3121 3122 3124 3127 3128 3130 3132 3133 3134 3134 3135 3136 3136 3138 3140 3144 3143 3143 3144 3144 3145 3145
3089 3090 3092 3094 3096 3101 3101 3103 3105 3109 3114 3114 3114 3116 3120 3123 3126 3127 3128 3132 3131 3130 3129 3132 3135 3137 3138 3139 3138 3139 3139 3139 3138
3081 3083 3084 3086 3088 3091 3094 3095 3099 3102 3104 3102 3106 3108 3111 3113 3120 3124 3125 3127 3126 3126 3125 3128 3130 3132 3132 3134 3135 3135 3134 3134 3133
3076 3076 3077 3079 3081 3083 3087 3090 3091 3096 3099 3099 3103 3103 3107 3107 3109 3113 3115 3118 3121 3120 3120 3122 3125 3126 3127 3128 3128 3128 3128 3128 3128
3069 3071 3071 3073 3075 3077 3080 3083 3086 3088 3092 3094 3095 3098 3101 3103 3106 3105 3109 3111 3112 3112 3113 3115 3117 3119 3121 3122 3122 3121 3121 3122 3121
3063 3064 3066 3067 3069 3072 3073 3076 3080 3082 3084 3087 3090 3092 3095 3097 3100 3102 3105 3107 3106 3107 3108 3109 3110 3113 3114 3114 3115 3116 3115 3114 3114